User: anonymous   Login
Location: Bouchavesnes-Bergen
(49.9859°N, 2.9203°E)
Time: 00:37:51
(UTC+00:00)
Language:

Cosmos 2221 - Orbit

View from above orbital plane
View from above orbital plane
View from above satellite
View from above satellite

Ground track
Ground track

The orbit data is extracted from the following two-line orbital elements,

1 22236U 92080A   21138.51502408  .00000213  00000-0  20484-4 0  9992
2 22236  82.5058 147.0357 0015112 291.7096  68.2512 14.88050573519095
Epoch (UTC): 18 May 2021 12:21:38
Eccentricity: 0.0015112
inclination: 82.5058°
perigee height: 593 km
apogee height: 614 km
right ascension of ascending node: 147.0357°
argument of perigee: 291.7096°
revolutions per day: 14.88050573
mean anomaly at epoch: 68.2512°
orbit number at epoch: 51909

The dashed part of the orbit path shows where the satellite is in the earth's shadow,  

DLR